{"data":{"norad_id":56511,"epoch":"2026-05-24T11:40:30.550944Z","epoch_age_seconds":115323,"freshness":"FRESH","line1":"1 56511U 23065J   26144.48646471  .00000577  00000+0  30505-4 0  9996","line2":"2 56511  43.0022 144.2630 0001149 269.9658  90.1062 15.27577944168195","mean_motion":15.27577944,"eccentricity":0.0001149,"inclination_deg":43.0022,"raan_deg":144.263,"arg_perigee_deg":269.9658,"mean_anomaly_deg":90.1062,"bstar":3.0505e-5,"rev_number":16819,"period_min":94.266875589296,"perigee_km":482.26690146039,"apogee_km":483.84360344001,"semimajor_km":6861.1922524502,"source":"CELESTRAK","updated_at":"2026-05-25T13:38:18.105170Z"}}